[[{"header":{"parameterUnit":"m.s-1","parameterCategory":1,"la1":30.2991,"la2":30.254,"lo1":-89.0895,"lo2":-89.0444,"dy":0.0017,"dx":0.0017,"nx":28,"ny":28,"refTime":"2024-05-29T21:00:00:Z","depth":0,"parameterNumber":2,"parameterNumberName":"U-component_of_WINDS"},"data":[0,0,0,0,0,0,0,0,0,0,0,0,0,0,0,0,0,0,0,0,0,0,0,0,0,0,0,0,0,0,0,0,0,0,0,0,0,0,0,0,0,0,0,0,0,0,0,0,0,0,0,0,0,0,0,0,0,0,-3.7666,-3.7666,0,-3.7658,-3.7658,-3.7658,-3.7601,-3.7599,-3.7598,-3.7597,-3.7589,-3.759,-3.7591,0,0,0,0,0,0,0,0,0,0,0,0,0,-3.7631,-3.7632,-3.7666,-3.7666,-3.7666,-3.7658,-3.7658,-3.7658,-3.7601,-3.7599,-3.7598,-3.7596,-3.7589,-3.759,-3.7592,0,0,0,0,0,0,0,0,0,0,0,0,0,-3.7637,-3.7633,-3.7666,-3.7636,-3.7633,-3.7658,-3.7658,-3.7658,-3.7601,-3.7599,-3.7597,-3.7595,-3.7588,-3.759,-3.7592,-3.7644,0,0,-3.7597,-3.7598,0,0,0,0,0,0,0,0,-3.7637,-3.7639,-3.7641,-3.7638,-3.7635,-3.7628,-3.7643,-3.7654,-3.7602,-3.7614,-3.7597,-3.7594,-3.7604,-3.7604,-3.7607,-3.7644,-3.7644,-3.7597,-3.7598,-3.7599,-3.7599,0,0,0,0,0,0,0,-3.7637,-3.7639,-3.7663,-3.7641,-3.7637,-3.7624,-3.7622,-3.7645,-3.7621,-3.7612,-3.7608,-3.7608,-3.7602,-3.7606,-3.7607,-3.7644,-3.7597,-3.7598,-3.7599,-3.76,-3.7724,-3.7726,0,0,0,0,0,0,-3.764,-3.7639,-3.7663,-3.7663,-3.7631,-3.7626,-3.7624,-3.7633,-3.762,-3.7616,-3.761,-3.7606,-3.7604,-3.7605,-3.7606,-3.7667,-3.7599,-3.76,-3.7601,-3.7722,-3.7725,-3.7727,0,0,0,0,0,0,-3.764,-3.7643,-3.7663,-3.765,-3.7651,-3.7629,-3.7639,-3.7634,-3.7637,-3.7618,-3.7614,-3.7618,-3.7603,-3.7604,-3.7636,-3.7666,-3.7601,-3.7603,-3.7719,-3.7723,-3.7726,-3.7789,0,0,0,0,0,0,-3.7639,-3.7643,-3.7663,-3.765,-3.7652,-3.7692,-3.7641,-3.7635,-3.7641,-3.7635,-3.7625,-3.7622,-3.7601,-3.7633,-3.7637,-3.7667,-3.7604,-3.7716,-3.7721,-3.7725,-3.7785,-3.7795,-3.7803,0,0,0,0,0,-3.7638,-3.7681,-3.7664,-3.7667,-3.7676,-3.7694,-3.7695,-3.7671,-3.7643,-3.7663,-3.7651,-3.7622,-3.7663,-3.7637,-3.7641,-3.7672,-3.7714,-3.7719,-3.7724,-3.778,-3.7793,-3.7803,0,0,0,0,0,0,-3.7697,-3.7678,-3.766,-3.77,-3.7699,-3.7684,-3.7708,-3.7684,-3.7691,-3.7686,-3.7655,-3.7654,-3.769,-3.7684,-3.7656,-3.7723,-3.7683,-3.769,-3.7725,-3.7736,-3.7746,-3.7745,-3.7605,0,0,0,0,0,-3.7714,-3.7731,-3.7714,-3.7751,-3.7752,-3.773,-3.7737,-3.7719,-3.7717,-3.7716,-3.7706,-3.7706,-3.7719,-3.7727,-3.7738,-3.7784,-3.7781,-3.7808,-3.7817,-3.7825,-3.783,-3.7854,-3.7866,-3.7744,-3.7744,-3.7744,0,0,-3.7751,-3.7743,-3.7755,-3.7763,-3.776,-3.7778,-3.773,-3.7751,-3.7764,-3.7719,-3.7748,-3.7742,-3.7739,-3.7778,-3.7795,-3.7775,-3.7864,-3.7832,-3.7838,-3.7839,-3.7861,-3.7872,-3.7883,-3.7747,-3.7747,-3.7746,0,0,-3.7825,-3.7822,-3.7852,-3.785,-3.7847,-3.7833,-3.7841,-3.783,-3.7824,-3.7853,-3.782,-3.7836,-3.7858,-3.7858,-3.786,-3.7938,-3.7911,-3.7942,-3.7991,-3.8015,-3.8024,-3.8033,-3.806,-3.807,-3.7948,-3.7948,-3.7948,0,-3.7871,-3.7896,-3.787,-3.7893,-3.7898,-3.7859,-3.789,-3.789,-3.7891,-3.7895,-3.7873,-3.7901,-3.7896,-3.7935,-3.7954,-3.7958,-3.7965,-3.7942,-3.8025,-3.8033,-3.8041,-3.8066,-3.8076,-3.7952,-3.7951,-3.7951,-3.7951,0,-3.7952,-3.797,-3.7995,-3.7997,-3.8004,-3.8031,-3.801,-3.8021,-3.8003,-3.7991,-3.8022,-3.8016,-3.8024,-3.8033,-3.8015,-3.8069,-3.8057,-3.8031,-3.799,-3.8056,-3.808,-3.8089,-3.7957,-3.7956,-3.7955,-3.7954,0,0,-3.806,-3.8049,-3.8059,-3.806,-3.8054,-3.8068,-3.8094,-3.8103,-3.8113,-3.8116,-3.8136,-3.8157,-3.8133,-3.8137,-3.8119,-3.814,-3.8201,-3.8111,-3.811,-3.8127,-3.8261,-3.828,-3.8291,-3.8185,-3.8187,-3.8188,-3.8261,0,-3.8132,-3.8174,-3.8153,-3.8198,-3.8215,-3.818,-3.8203,-3.8202,-3.8193,-3.8206,-3.8196,-3.8211,-3.8179,-3.818,-3.82,-3.819,-3.8228,-3.8184,-3.8203,-3.8204,-3.8203,-3.8303,-3.8323,-3.8392,-3.827,-3.8271,-3.8272,0,-3.822,-3.8226,-3.8274,-3.8266,-3.8273,-3.8293,-3.83,-3.8313,-3.8313,-3.8305,-3.831,-3.8287,-3.8312,-3.8274,-3.8308,-3.8279,-3.8286,-3.8283,-3.8285,-3.8284,-3.8241,-3.8304,-3.8413,-3.8423,-3.8287,-3.8286,-3.8285,0,-3.8293,-3.8314,-3.8345,-3.8347,-3.834,-3.8355,-3.8353,-3.835,-3.8357,-3.8364,-3.8368,-3.8378,-3.8383,-3.8392,-3.8372,-3.8346,-3.841,-3.837,-3.8403,-3.8404,-3.8416,-3.8415,-3.8526,-3.8424,-3.8423,-3.8423,-3.8423,0,-3.8374,-3.8404,-3.8378,-3.8397,-3.843,-3.8407,-3.844,-3.8434,-3.8432,-3.845,-3.8421,-3.8438,-3.8413,-3.8427,-3.8413,-3.8444,-3.8446,-3.844,-3.8436,-3.8442,-3.8443,-3.8444,-3.8439,-3.8426,-3.8425,-3.8425,-3.8424,0,-3.846,-3.8445,-3.8476,-3.8467,-3.8466,-3.849,-3.8483,-3.85,-3.849,-3.8513,-3.8516,-3.85,-3.8516,-3.8499,-3.8514,-3.8504,-3.8545,-3.8534,-3.8545,-3.8541,-3.8575,-3.8572,-3.869,-3.8704,-3.8594,-3.8595,-3.8596,0,-3.8512,-3.8534,-3.8528,-3.8538,-3.8538,-3.8554,-3.8561,-3.854,-3.8549,-3.8551,-3.8568,-3.8582,-3.8591,-3.8619,-3.8608,-3.862,-3.8608,-3.8649,-3.861,-3.8615,-3.8608,-3.8606,-3.8608,-3.8656,-3.8658,-3.8659,-3.866,0,-3.8605,-3.8596,-3.8608,-3.8618,-3.8628,-3.8635,-3.8639,-3.8649,-3.8627,-3.8639,-3.8655,-3.8662,-3.8678,-3.8692,-3.8701,-3.8699,-3.8676,-3.8673,-3.8681,-3.8686,-3.8691,-3.8688,-3.8565,-3.8669,-3.8668,-3.8668,-3.8667,-3.8667,-3.8674,-3.8693,-3.8692,-3.8706,-3.8708,-3.8713,-3.8729,-3.8722,-3.8735,-3.8746,-3.8733,-3.8753,-3.8753,-3.8762,-3.8763,-3.8779,-3.8761,-3.8774,-3.8776,-3.8779,-3.8784,-3.8691,-3.8781,-3.878,-3.878,-3.878,-3.878,0,-3.8764,-3.8763,-3.8777,-3.8784,-3.8796,-3.8775,-3.8779,-3.879,-3.8808,-3.8811,-3.8821,-3.8841,-3.8855,-3.8846,-3.8858,-3.8873,-3.8862,-3.8876,-3.8874,-3.8874,-3.8799,-3.879,-3.8884,-3.8884,-3.8884,-3.8884,-3.8884,-3.8884,-3.8813,-3.8843,-3.8835,-3.8866,-3.8864,-3.8883,-3.8888,-3.8893,-3.8894,-3.8917,-3.8929,-3.8924,-3.8922,-3.8934,-3.8946,-3.8944,-3.8949,-3.8966,-3.896,-3.889,-3.8879,-3.8869,-3.8861,-3.8968,-3.8968,-3.9033,-3.9034,-3.9034]},{"header":{"parameterUnit":"m.s-1","parameterCategory":1,"la1":30.2991,"la2":30.254,"lo1":-89.0895,"lo2":-89.0444,"dy":0.0017,"dx":0.0017,"nx":28,"ny":28,"refTime":"2024-05-29T21:00:00:Z","depth":0,"parameterNumber":3,"parameterNumberName":"V-component_of_WINDS"},"data":[0,0,0,0,0,0,0,0,0,0,0,0,0,0,0,0,0,0,0,0,0,0,0,0,0,0,0,0,0,0,0,0,0,0,0,0,0,0,0,0,0,0,0,0,0,0,0,0,0,0,0,0,0,0,0,0,0,0,2.2975,2.2973,0,2.2789,2.2787,2.2785,2.2712,2.2712,2.2713,2.2713,2.2518,2.2512,2.2507,0,0,0,0,0,0,0,0,0,0,0,0,0,2.3264,2.3259,2.2975,2.2973,2.2971,2.279,2.2787,2.2784,2.2711,2.2712,2.2713,2.2713,2.252,2.2513,2.2506,0,0,0,0,0,0,0,0,0,0,0,0,0,2.3114,2.3257,2.2976,2.2912,2.2905,2.279,2.2787,2.2784,2.2711,2.2712,2.2713,2.2713,2.2522,2.2514,2.2505,2.2438,0,0,2.2479,2.2476,0,0,0,0,0,0,0,0,2.3123,2.3104,2.2924,2.2917,2.2908,2.2774,2.2817,2.2668,2.2711,2.2785,2.2713,2.2714,2.2602,2.2587,2.255,2.2429,2.242,2.2478,2.2473,2.247,2.2467,0,0,0,0,0,0,0,2.3133,2.3111,2.2901,2.2922,2.2912,2.2892,2.2872,2.2788,2.2691,2.2778,2.2773,2.2752,2.2598,2.2559,2.2545,2.2417,2.2479,2.2471,2.2466,2.2463,2.2232,2.2231,0,0,0,0,0,0,2.3154,2.312,2.2907,2.2896,2.302,2.2887,2.2864,2.2816,2.2692,2.2674,2.2751,2.2749,2.2573,2.2555,2.2538,2.2451,2.247,2.2462,2.2457,2.2233,2.2231,2.223,0,0,0,0,0,0,2.3161,2.3136,2.2915,2.3006,2.2977,2.2881,2.2828,2.2812,2.2773,2.2672,2.2654,2.273,2.2573,2.255,2.2464,2.2443,2.2458,2.245,2.2234,2.2232,2.2231,2.2277,0,0,0,0,0,0,2.317,2.3139,2.3113,2.3006,2.2972,2.2845,2.2827,2.2808,2.2759,2.2755,2.2646,2.2629,2.2572,2.2477,2.2455,2.2432,2.2444,2.2235,2.2233,2.2231,2.2277,2.2277,2.2277,0,0,0,0,0,2.318,2.3132,2.3112,2.3087,2.2938,2.2844,2.2824,2.276,2.2758,2.2731,2.2666,2.2633,2.245,2.2469,2.2444,2.2417,2.2236,2.2234,2.2231,2.2276,2.2277,2.2277,0,0,0,0,0,0,2.3237,2.3117,2.3093,2.301,2.2938,2.2832,2.2795,2.2763,2.2688,2.2687,2.2609,2.2585,2.2505,2.2453,2.2476,2.2346,2.234,2.2333,2.2383,2.2383,2.2383,2.2397,2.2437,0,0,0,0,0,2.324,2.3175,2.3073,2.3009,2.2974,2.2892,2.2848,2.2805,2.2727,2.2695,2.2624,2.2548,2.2473,2.2425,2.2351,2.227,2.2244,2.2239,2.224,2.224,2.2234,2.2187,2.2184,2.2223,2.2223,2.2223,0,0,2.3245,2.3171,2.3134,2.3019,2.2958,2.2891,2.2866,2.2796,2.2745,2.2684,2.2598,2.2544,2.2454,2.237,2.2329,2.2323,2.2219,2.2237,2.2239,2.2232,2.2185,2.2181,2.2178,2.2221,2.2221,2.2221,0,0,2.3219,2.3158,2.3098,2.3038,2.2947,2.2893,2.2879,2.2778,2.274,2.2653,2.2606,2.2544,2.2417,2.2355,2.2307,2.2261,2.2227,2.2239,2.224,2.2195,2.2192,2.2189,2.2172,2.2167,2.2234,2.2234,2.2234,0,2.3236,2.3135,2.3071,2.3004,2.2954,2.2899,2.2837,2.2782,2.267,2.2637,2.2633,2.2473,2.2408,2.2309,2.2299,2.2262,2.2242,2.225,2.2198,2.2194,2.219,2.2173,2.2167,2.2236,2.2235,2.2235,2.2235,0,2.316,2.3091,2.3053,2.295,2.2896,2.2832,2.2757,2.271,2.2673,2.2619,2.2532,2.2453,2.2362,2.2336,2.2298,2.2231,2.223,2.2214,2.2206,2.219,2.2172,2.2165,2.2238,2.2238,2.2237,2.2237,0,0,2.3163,2.3027,2.3014,2.2967,2.2863,2.2807,2.2741,2.2654,2.2615,2.2541,2.2483,2.2378,2.2362,2.2308,2.2262,2.2223,2.2192,2.2211,2.2207,2.2209,2.2113,2.2126,2.2119,2.217,2.2168,2.2167,2.212,0,2.3123,2.3003,2.2945,2.285,2.2785,2.2732,2.2674,2.2604,2.2552,2.2489,2.2431,2.2357,2.2342,2.2309,2.2268,2.2204,2.2171,2.2207,2.2113,2.2111,2.2136,2.211,2.2123,2.2082,2.2113,2.2112,2.2111,0,2.306,2.2988,2.2888,2.2793,2.2764,2.2713,2.2629,2.2569,2.2489,2.2454,2.2395,2.2351,2.2278,2.2278,2.2176,2.2202,2.2161,2.2124,2.2121,2.2108,2.2109,2.2096,2.2068,2.2062,2.21,2.2101,2.2101,0,2.3071,2.295,2.2874,2.2835,2.2723,2.2689,2.264,2.2561,2.2513,2.2439,2.2407,2.2325,2.228,2.2218,2.2153,2.2159,2.2058,2.2052,2.2025,2.2027,2.2005,2.2007,2.1969,2.1981,2.1981,2.1981,2.1981,0,2.3032,2.2972,2.2878,2.2831,2.2762,2.2696,2.263,2.2577,2.2507,2.2448,2.2398,2.2344,2.2263,2.2198,2.2147,2.2071,2.2051,2.2019,2.2006,2.2023,2.2027,2.1993,2.1994,2.1979,2.198,2.198,2.198,0,2.3032,2.2966,2.288,2.2782,2.2756,2.271,2.2626,2.2578,2.2525,2.2451,2.243,2.2346,2.2267,2.2198,2.2093,2.2059,2.198,2.1965,2.2008,2.2001,2.1978,2.1981,2.1916,2.1904,2.1926,2.1926,2.1926,0,2.301,2.2963,2.2862,2.282,2.2773,2.2706,2.2657,2.259,2.2541,2.2447,2.2411,2.2329,2.226,2.2137,2.2065,2.1985,2.1967,2.195,2.1954,2.1973,2.1965,2.1968,2.1963,2.1949,2.195,2.195,2.195,0,2.2979,2.2949,2.2882,2.2804,2.2748,2.2682,2.2615,2.2583,2.2504,2.2451,2.2372,2.2318,2.2213,2.2132,2.2045,2.1993,2.1958,2.195,2.1939,2.1955,2.1981,2.1966,2.2008,2.1951,2.195,2.195,2.195,2.195,2.2966,2.2923,2.2845,2.2771,2.2715,2.2654,2.2604,2.2546,2.2479,2.2389,2.2354,2.2273,2.2194,2.2073,2.2022,2.1957,2.195,2.1935,2.1931,2.1928,2.1931,2.1994,2.1941,2.1941,2.194,2.194,2.194,0,2.2932,2.288,2.2813,2.2722,2.2665,2.2639,2.2564,2.2517,2.2447,2.2378,2.2312,2.222,2.2143,2.2066,2.1984,2.1946,2.1928,2.1927,2.1928,2.1917,2.1942,2.1959,2.1943,2.1943,2.1943,2.1943,2.1943,2.1943,2.2907,2.2832,2.2793,2.2689,2.2637,2.2559,2.2518,2.2461,2.2406,2.2307,2.2242,2.2194,2.2121,2.2034,2.1961,2.194,2.1912,2.1915,2.189,2.1914,2.1915,2.1915,2.1931,2.191,2.191,2.187,2.187,2.187]}]]